STARLINK-1719, 46331

Orbit data source: Space-Track

STARLINK-1719, 46331 is a payload satellite owned by SpaceX/Seattle (US) in LEO that was launched on Thu, 03 Sep 2020 UTC via an FALCON 9 launch vehicle from the Air Force Eastern Test Range (AFETR). Payload-class satellites include a variety of spacecraft equipped with specific instruments for various scientific and technological missions. These include communications satellites like Starlink; space stations such as the ISS; scientific satellites like the Hubble; Earth observation satellites from companies like Planet Labs, Umbra, and HawkEye 360; GPS; miniature CubeSats for education and research; and military/defense satellites.

Loading next visibility...
Identifier
46331, 2020-062G
Orbit
LEO
Country
Flag of USUS
Related business
Manufacturer
SpaceX/Seattle
Mission
Partially operational Commercial Communications
Bus & Motor
STARLINK, Unknown motor
Mass
260 kg wet, ~248 kg dry
Launch date (UTC)
2020-09-03 (6 years ago)
Launch vehicle
FALCON 9
Launch site
Air Force Eastern Test Range (AFETR)
Object type
Payload
Rocket body
Debris
Shape & HBR
Box + 1 Pan, 10.1 m
Radar Cross Section
13.562 m², Large (>1 m²)

Expand to show TLE details & history
Last TLE update: 6 hours ago

TLE from 6 hours ago
0 STARLINK-1719
1 46331U 20062G   26072.97149966  .00090536  00000-0  11446-2 0  9996
2 46331  53.0455 317.9761 0003761 291.1806  68.8804 15.58794771305511
Epoch: 2026-03-13T23:18Z
TLE epoch observation values (Epoch: 2026-03-13T23:18:57.570Z)
Latitude
Longitude
156.63685°
Altitude
391.126 km
Speed
7.677 km/s
True Right ascension
21h 11m 54s
True Declination
0° 00' 00"
Sunlit
Object was in daylight at epoch
Visualization orbit readout
Latitude
Unknown
Longitude
Unknown
Altitude
Unknown
Speed
Unknown
Apparent Right ascension
Unknown
Apparent Declination
Unknown
Sunlit
N/A
Visualization observer readout
Local Sidereal Time
09:20:36
Azimuth
Unknown
Elevation
Unknown
Doppler factor
Unknown
Orbital elements
Apogee altitude
393.968 km
Perigee altitude
388.876 km
Semi-major axis
6,769.559 km
Eccentricity
0.00038
Inclination
53.0455°
RAAN
317.9761°
Arg. of periapsis
291.1806°
True anomaly
68.92061°
Mean anomaly
68.8804°
Eccentric anomaly
68.9005°
Mean motion
3.89675 °/min
Orbital period
92.38 mins
BSTAR
0.0011446
Loading maneuver chart data...
Computing Atmospheric mass density...
Loading historical data...
Loading historical data...
Loading historical data...
Loading historical data...
Loading historical data...
Loading historical data...
Loading historical data...

Documentation

Showing up to 5 results
|